Regional Weather Roundup
Issued by NWS

Home | Current Version | Previous Version | Graphics & Text | Print | Product List | Glossary On
Versions: 1 2 3 4 5 6 7 8 9 10 11 12 13 14 15 16 17 18 19 20 21 22 23 24 25 26 27 28 29 30 31 32 33 34 35 36 37 38 39 40 41 42 43 44 45 46 47 48 49 50
000
ASUS43 KFSD 251402
RWRSD

WEATHER ROUNDUP FOR SOUTH DAKOTA
NATIONAL WEATHER SERVICE SIOUX FALLS SD
800 AM CST SUN JAN 25 2015

NOTE: "FAIR" INDICATES FEW OR NO CLOUDS BELOW 12,000 FEET WITH NO
SIGNIFICANT WEATHER AND/OR OBSTRUCTIONS TO VISIBILITY.


SDZ001>005-009-010-012>017-251500-
NORTHWEST AND NORTH CENTRAL SOUTH DAKOTA

CITY           SKY/WX    TMP DP  RH WIND       PRES   REMARKS
BUFFALO          N/A     27  22  81 W10       29.95F WCI  17
FAITH            N/A     32  26  78 NW13      30.03R WCI  22
MOBRIDGE       CLOUDY    37  33  85 NW12      29.95R
$$

SDZ012>016-024>037-041>051-057-063-072>074-251500-
SOUTHWEST AND SOUTH CENTRAL SOUTH DAKOTA

CITY           SKY/WX    TMP DP  RH WIND       PRES   REMARKS
RAPID CTY ARPT CLEAR     29  21  72 N12       30.02R WCI  19
PIERRE         CLOUDY    37  31  78 NW15      29.99R
CUSTER         CLEAR     34   7  32 NW8G18    30.00R WCI  27
PHILIP         CLEAR     34  26  72 NW17      30.04R WCI  23
PINE RIDGE     CLEAR     26  21  81 W3        30.08R
WINNER         CLOUDY    38  31  76 NW15      29.99R
$$

SDZ004>011-016>023-039-040-251500-
NORTHEAST SOUTH DAKOTA

CITY           SKY/WX    TMP DP  RH WIND       PRES   REMARKS
ABERDEEN       CLOUDY    28  24  85 N6        29.99R WCI  22
WATERTOWN      CLOUDY    29  26  89 N9        29.93R WCI  20
SISSETON         N/A     23  21  92 N14       29.97R WCI  11
$$

SDZ017-020-022-023-036>040-048>070-251500-
SOUTHEAST SOUTH DAKOTA

CITY           SKY/WX    TMP DP  RH WIND       PRES   REMARKS
SIOUX FALLS    CLOUDY    33  31  92 N12       29.92R WCI  24
HURON          CLOUDY    30  28  92 N10       29.97R WCI  21
MITCHELL       CLOUDY    32  30  92 NW9       29.98R WCI  24
YANKTON        CLOUDY    32  28  86 NW16      29.95R WCI  21
$$

ABBREVIATIONS USED IN REMARKS
   TC - TEMPERATURE IN CELSIUS
  WCI - WIND CHILL INDEX
   HX - HEAT INDEX
  VSB - VISIBILITY



USA.gov is the U.S. government's official web portal to all federal, state and local government web resources and services.